User: anonymous   Login
Location: Unspecified
(0.0000°N, 0.0000°E)
Time: 08:35:44
(UTC+00:00)
Language:

Fuji - Orbit

View from above orbital plane
View from above orbital plane
View from above satellite
View from above satellite

Ground track
Ground track

The orbit data is extracted from the following two-line orbital elements,

1 16909U 86061B   17294.06658282 -.00000076  00000-0  15226-3 0  9999
2 16909  50.0132 151.7960 0011330  40.6340 121.1788 12.44467552418485
Epoch (UTC): 21 October 2017 01:35:52
Eccentricity: 0.0011330
inclination: 50.0132°
perigee height: 1479 km
apogee height: 1496 km
right ascension of ascending node: 151.7960°
argument of perigee: 40.6340°
revolutions per day: 12.44467552
mean anomaly at epoch: 121.1788°
orbit number at epoch: 41848

The dashed part of the orbit path shows where the satellite is in the earth's shadow,  

DLR